Regional Weather Roundup
Issued by NWS

Home | Current Version | Previous Version | Graphics & Text | Print | Product List | Glossary On
Versions: 1 2 3 4 5 6 7 8 9 10 11 12 13 14 15 16 17 18 19 20 21 22 23 24 25 26 27 28 29 30 31 32 33 34 35 36 37 38 39 40 41 42 43 44 45 46 47 48 49 50
000
ASUS43 KLOT 162106
RWRIL

ILLINOIS REGIONAL WEATHER ROUNDUP
NATIONAL WEATHER SERVICE CHICAGO/ROMEOVILLE IL
400 PM CDT TUE SEP 16 2014

NOTE: "FAIR" INDICATES FEW OR NO CLOUDS BELOW 12,000 FEET WITH NO
SIGNIFICANT WEATHER AND/OR OBSTRUCTIONS TO VISIBILITY.

* THESE STATIONS ARE NOT UNDER NWS QUALITY CONTROL. THEY ALSO MAY NOT
  REPORT WEATHER SUCH AS PRECIPITATION OR FOG.

ILZ001-002-007-009-015-016-024-162200-
NORTHWEST ILLINOIS

CITY           SKY/WX    TMP DP  RH WIND       PRES   REMARKS
MOLINE         SUNNY     67  44  43 VRB5      30.13F
STERLING*      SUNNY     68  45  42 NW6       30.13S
SAVANNA*       SUNNY     65  41  40 CALM      30.13F
$$

ILZ003-004-008-010-011-017-018-162200-
NORTH CENTRAL ILLINOIS

CITY           SKY/WX    TMP DP  RH WIND       PRES   REMARKS
ROCKFORD       SUNNY     65  41  41 W7        30.13F
FREEPORT*      SUNNY     63  42  47 SW6       30.15S
ROCHELLE*      SUNNY     65  41  41 SW6       30.13F
DE KALB*       SUNNY     62  40  44 W5        30.13F
PERU*          SUNNY     65  44  46 S3        30.13F
$$

ILZ005-006-012>014-019>023-162200-
NORTHEAST ILLINOIS

CITY           SKY/WX    TMP DP  RH WIND       PRES   REMARKS
CHICAGO-OHARE  SUNNY     68  40  35 NW6       30.11F
CHICAGO-MIDWAY MOSUNNY   68  42  38 NW7       30.11F
AURORA         SUNNY     67  40  37 W6        30.12F
LANSING*       SUNNY     66  44  44 CALM      30.12F
JOLIET*        SUNNY     65  39  37 NW6       30.13F
WAUKEGAN       SUNNY     63  45  51 SE6       30.11F
DUPAGE AIRPORT SUNNY     67  41  38 W8        30.11F
KANKAKEE*      SUNNY     66  47  49 SE5       30.12F
WHEELING       SUNNY     67  40  37 W9        30.13F
MORRIS*        SUNNY     67  44  43 CALM      30.12F
ROMEOVILLE*    SUNNY     65  41  41 W3        30.12F
NORTHERLY ISL    N/A     61  46  57 E7          N/A
$$

LMZ740>746-162200-
SOUTHERN LAKE MICHIGAN

STATION/POSITION SKY/WX   TEMP    WIND        PRES    VSBY  WAVE
                          AIR SEA DIR/SP/G                  HT/PER
                          (F)     (DEG/KT/KT) (MB)    (MI)  (FT/S)
SOUTHERN BUOY              58 65  340/  4/  6 1020.8F         1/ 4
WAUKEGAN HARBOR            60     130/  6/  8   N/A
HARRISON CRIB              59      90/  8/  9   N/A
BURNHAM HARBOR             61      80/  6/  6   N/A
CALUMET HARBOR             60      50/  7/  9 1018.8F
MICHIGAN CITY              60     360/  6/  8   N/A
MICHIGAN CITY 6N           60 65   20/  4/  6   N/A           2/ 4
ST. JOSEPH                 60 67  300/  6/  8   N/A           2/ 5
$$

ILZ025>027-034>036-040-047-049-050-058-095>099-162200-
WEST-CENTRAL ILLINOIS

CITY           SKY/WX    TMP DP  RH WIND       PRES   REMARKS
QUINCY         SUNNY     66  45  46 CALM      30.12F
GALESBURG*     SUNNY     72  47  39 CALM      30.12F
MACOMB*        SUNNY     67  46  46 CALM      30.14F
JACKSONVILLE*  MOSUNNY   70  51  51 CALM        N/A
PITTSFIELD*    MOSUNNY   69  49  49 CALM      30.13F
$$

ILZ028>032-037-038-041>044-048-051>054-059>061-162200-
CENTRAL ILLINOIS

CITY           SKY/WX    TMP DP  RH WIND       PRES   REMARKS
PONTIAC        SUNNY     68  45  42 CALM      30.13F
DECATUR        SUNNY     67  49  52 CALM      30.13F
PEORIA         SUNNY     69  44  40 CALM      30.13F
LACON*         SUNNY     65  40  39 CALM      30.12F
LINCOLN*       SUNNY     70  47  43 CALM      30.10F
SPRINGFIELD    PTSUNNY   65  50  58 S3        30.13F
TAYLORVILLE    PTSUNNY   64  50  59 W5        30.13F
$$

ILZ033-039-045-046-055>057-062-063-162200-
EAST-CENTRAL ILLINOIS

CITY           SKY/WX    TMP DP  RH WIND       PRES   REMARKS
CHAMPAIGN      SUNNY     68  49  50 VRB3      30.13F
DANVILLE*      CLOUDY    65  47  51 NE5       30.10F
RANTOUL*       SUNNY     69  44  40 CALM      30.13F
MATTOON        PTSUNNY   66  49  54 CALM      30.12F
PARIS*         MOSUNNY   65  50  58 CALM      30.13F
$$

ILZ079-100>102-162200-
SOUTHWEST ILLINOIS

CITY           SKY/WX    TMP DP  RH WIND       PRES   REMARKS
ALTON          PTSUNNY   63  52  67 CALM      30.14F
BELLEVILLE     PTSUNNY   67  54  62 VRB2      30.12F
CAHOKIA*       CLOUDY    67  52  58 CALM      30.13F
SPARTA*        CLOUDY    63  52  66 CALM      30.14F
$$

ILZ064>066-069>071-074>076-080>082-084>086-088>090-092>094-162200-
SOUTH-CENTRAL ILLINOIS

CITY           SKY/WX    TMP DP  RH WIND       PRES   REMARKS
CARBONDALE     CLOUDY    63  52  67 CALM      30.14F
CAIRO*         MOSUNNY   69  55  60 N7        30.11F
EFFINGHAM*     CLOUDY    64  47  53 CALM      30.13F
MARION         CLOUDY    64  54  68 N7        30.14F
MT. VERNON     MOSUNNY   63  52  67 N3        30.14F
CENTRALIA*     MOSUNNY   65  51  58 NE6       30.13F
SALEM*         PTSUNNY   66  54  65 NE3       30.13F
METROPOLIS*    MOSUNNY   69  55  61 N7        30.11F
$$

ILZ067-068-072-073-078-083-087-091-162200-
SOUTHEAST ILLINOIS

CITY           SKY/WX    TMP DP  RH WIND       PRES   REMARKS
LAWRENCEVILLE  PTSUNNY   65  51  60 VRB5      30.14F
FLORA*         SUNNY     63  50  63 NE3       30.14F
FAIRFIELD*     PTSUNNY  N/A N/A N/A NE7       30.13F
HARRISBURG*    CLOUDY    62  53  73 N5        30.14F
ROBINSON*      PTSUNNY   64  55  70 NE3       30.14F
CARMI*         CLOUDY    65  56  71 NW7       30.13F
$$

ABBREVIATIONS USED IN REMARKS
   TC - TEMPERATURE IN CELSIUS
  WCI - WIND CHILL INDEX
   HX - HEAT INDEX
  VSB - VISIBILITY
$$



USA.gov is the U.S. government's official web portal to all federal, state and local government web resources and services.